Location: ???? ????
(41.4149°N, 22.8816°E)
Time: 14:06:48
(UTC+00:00)

CZ-2D R/B - Pass Details

Date: 14 July 2020
Orbit: 792 x 845 km, 98.7° (Epoch: 03 August)

Event Time Altitude Azimuth Distance (km) Brightness Sun altitude
Rises 00:39:42 0° 7° (N) 3,348 6.5 -20.6°
Reaches altitude 10° 00:42:06 10° 2° (N) 2,420 5.5 -20.4°
Maximum altitude 00:47:14 49° 290° (WNW) 1,060 2.6 -19.8°
Enters shadow 00:49:08 34° 239° (WSW) 1,335 2.8 -19.6°
